Weather Roundup
Issued by NWS Chicago, IL

Home | Current Version | Previous Version | Graphics & Text | Print | Product List | Glossary On
Versions: 1 2 3 4 5 6 7 8 9 10 11 12 13 14 15 16 17 18 19 20 21 22 23 24 25 26 27 28 29 30 31 32 33 34 35 36 37 38 39 40 41 42 43 44 45 46 47 48 49 50
000
NZUS59 KLOT 060558
HRRLOT

CHICAGO AREA WEATHER ROUNDUP
NATIONAL WEATHER SERVICE CHICAGO/ROMEOVILLE IL
1200 AM CST FRI MAR 06 2015

NOTE: "FAIR" INDICATES FEW OR NO CLOUDS BELOW 12,000 FEET WITH NO
SIGNIFICANT WEATHER AND/OR OBSTRUCTIONS TO VISIBILITY.

* THESE STATIONS ARE NOT UNDER NWS QUALITY CONTROL. THEY ALSO MAY NOT
  REPORT WEATHER SUCH AS PRECIPITATION OR FOG.

ILZ005-006-012>014-019>023-060700-
NORTHEAST ILLINOIS

CITY           SKY/WX    TMP DP  RH WIND       PRES   REMARKS
OHARE          MOCLDY     6  -2  69 SW5       30.52F WCI  -3
6HR MIN TEMP:   6; 6HR MAX TEMP:  13;

MIDWAY         NOT AVBL
AURORA         PTCLDY     2  -6  69 SW6       30.53F WCI  -9
6HR MIN TEMP:   1; 6HR MAX TEMP:  10;

WAUKEGAN       NOT AVBL
DUPAGE AIRPORT PTCLDY     2  -6  69 SW7       30.51F WCI -11
6HR MIN TEMP:   1; 6HR MAX TEMP:  10;

WHEELING       MOCLDY     7  -2  66 SW6       30.53F WCI  -3
6HR MIN TEMP:   7; 6HR MAX TEMP:  14;

NORTHERLY IS     N/A     11   2  67 W6          N/A  WCI   2
$$

WIZ051-052-058>065-066-070>072-060700-
SOUTHEAST WISCONSIN

CITY           SKY/WX    TMP DP  RH WIND       PRES   REMARKS
MILWAUKEE      PTCLDY     5  -7  57 SW8       30.48S WCI  -8
6HR MIN TEMP:   5; 6HR MAX TEMP:  14;

$$

INZ001>003-010>013-019-020-060700-
NORTHWEST INDIANA

CITY           SKY/WX    TMP DP  RH WIND       PRES   REMARKS
GARY*          NOT AVBL
MICHIGAN CITY* NOT AVBL
RENSSELAER*    NOT AVBL
$$

LMZ740>746-060700-
SOUTHERN LAKE MICHIGAN

STATION/POSITION TIME  SKY/WX   TEMP WIND        PRES    VSBY
                                AIR  DIR/SP/G
                 (UTC)          (F)  (DEG/KT/KT) (MB)    (MI)
HARRISON CRIB    0500            12  250/ 13/ 17   N/A
BURNHAM HARBOR   0500            11  270/  6/ 12   N/A
CALUMET HARBOR   0500            10  230/  5/ 10 1032.8F
BURNS HARBOR     NOT AVBL
MICHIGAN CITY    0500             9  190/ 10/ 10   N/A
$$

ABBREVIATIONS USED IN REMARKS
   TC - TEMPERATURE IN CELSIUS
  WCI - WIND CHILL INDEX
   HX - HEAT INDEX
  VSB - VISIBILITY
$$



USA.gov is the U.S. government's official web portal to all federal, state and local government web resources and services.